Simultaneous Nadir Overpasses (SNOs) Predictions

Prediction of SNOs between METOP-B and NOAA-19 Satellite Orbit:

Table of predicted SNOs for the next 14.0 days since TLE Epoch: 3/23/2024
Index Date (METOP-B) Time (METOP-B) Lat,Lon (METOP-B) SZA (METOP-B ) Date (NOAA-19) Time (NOAA-19) Lat,Lon (NOAA-19) SZA (NOAA-19 ) Distance(km) Time Diff (sec)
1 03/29/2024 02:12:07 79.19, 160.40 75.86 03/29/2024 02:11:13 79.20, 160.45 75.86 1.26 54
2 03/29/2024 03:02:47 -79.24, -31.95 104.10 03/29/2024 03:02:07 -79.23, -32.06 104.12 2.55 40
3 03/29/2024 03:53:25 79.32, 135.98 76.00 03/29/2024 03:53:07 79.33, 136.10 76.01 3.01 18
4 03/29/2024 04:44:05 -79.36, -56.36 103.96 03/29/2024 04:44:01 -79.36, -56.40 103.97 0.84 4
5 03/29/2024 05:34:43 79.44, 111.58 76.13 03/29/2024 05:35:02 79.43, 111.51 76.12 1.84 19
6 03/29/2024 06:25:23 -79.48, -80.76 103.83 03/29/2024 06:25:55 -79.49, -80.72 103.82 0.89 32
7 03/29/2024 07:16:01 79.56, 87.21 76.27 03/29/2024 07:16:56 79.56, 87.21 76.28 0.17 55



Historial Predications of SNOs between METOP-B and NOAA-19
